45.5°F
Current conditions from King Hill
Updated every 5 minutes
 
  Thursday October 30, 2014

Station Historical Data
Daily Summary for April 9, 2012 Units:  Metric    English   Both
« Previous Day
Next Day »
Daily Weekly Monthly Yearly Custom
  High: Low: Average:
Temperature: 7.4 °C 2.9 °C 5.1 °C
Dew Point: 2.2 °C -2.6 °C 1.2 °C
Humidity: 88% 49% 77%
Wind Speed: 20.9km/h 1.6km/h 10.6km/h
Wind Gust: 40.2km/h - -
Wind- - WSW
Pressure: 998.9 hPa 994.5 hPa -
Precipitation: 10.4 mm    
Historical Graphs
 
 
Tabular Data for April 9, 2012
Time Temperature Dew Point Pressure Wind Wind Speed Wind Gust Humidity Daily Rainfall
00:04 7.4 °C -2.6 °C 997.5 hPa WSW 11.3 km/h 24.1 km/h 49% 0 mm
00:09 7.3 °C -2.4 °C 997.5 hPa WSW 8 km/h 24.1 km/h 50% 0 mm
00:14 7.2 °C -2.5 °C 997.2 hPa SW 8 km/h 19.3 km/h 50% 0 mm
00:19 7.2 °C -2.6 °C 997.2 hPa WSW 11.3 km/h 17.7 km/h 50% 0 mm
00:24 7.2 °C -2.6 °C 997.2 hPa SW 8 km/h 17.7 km/h 50% 0 mm
00:30 7.1 °C -2.6 °C 997.2 hPa SW 8 km/h 24.1 km/h 50% 0 mm
00:40 6.8 °C -2.6 °C 996.8 hPa SW 8 km/h 17.7 km/h 51% 0 mm
00:49 6.7 °C -2.4 °C 996.8 hPa WSW 9.7 km/h 22.5 km/h 52% 0 mm
00:54 6.7 °C -2.2 °C 996.8 hPa SW 9.7 km/h 17.7 km/h 53% 0 mm
01:00 6.7 °C -2 °C 996.8 hPa SW 9.7 km/h 20.9 km/h 54% 0 mm
01:09 6.3 °C -2.1 °C 996.5 hPa WSW 8 km/h 17.7 km/h 55% 0 mm
01:14 6.2 °C -1.7 °C 996.5 hPa WSW 9.7 km/h 19.3 km/h 57% 0 mm
01:19 6.2 °C -1.7 °C 996.5 hPa SW 9.7 km/h 19.3 km/h 57% 0 mm
01:24 5.9 °C -1.7 °C 996.5 hPa WSW 9.7 km/h 17.7 km/h 58% 0 mm
01:29 6.2 °C -1.3 °C 996.5 hPa SW 12.9 km/h 19.3 km/h 59% 0 mm
01:34 6.3 °C -1.1 °C 996.5 hPa WSW 8 km/h 20.9 km/h 59% 0 mm
01:39 6.3 °C -1.1 °C 996.2 hPa WSW 12.9 km/h 20.9 km/h 59% 0 mm
01:44 6.3 °C -0.9 °C 996.2 hPa WSW 8 km/h 19.3 km/h 60% 0 mm
01:54 6.4 °C -0.6 °C 996.2 hPa SW 11.3 km/h 22.5 km/h 61% 0 mm
01:59 6.4 °C -0.6 °C 996.2 hPa WSW 9.7 km/h 22.5 km/h 61% 0 mm
02:04 6.5 °C -0.3 °C 996.2 hPa WSW 8 km/h 22.5 km/h 62% 0 mm
02:14 6.5 °C -0.3 °C 995.8 hPa WSW 9.7 km/h 20.9 km/h 62% 0 mm
02:19 6.5 °C -0.1 °C 995.8 hPa SW 8 km/h 20.9 km/h 63% 0 mm
02:24 6.5 °C 0.2 °C 995.8 hPa WSW 14.5 km/h 22.5 km/h 64% 0 mm
02:29 6.6 °C 0.3 °C 995.8 hPa WSW 12.9 km/h 24.1 km/h 64% 0 mm
02:34 6.7 °C 0.4 °C 995.8 hPa WSW 11.3 km/h 24.1 km/h 64% 0 mm
02:39 6.7 °C 0.3 °C 995.8 hPa SW 11.3 km/h 19.3 km/h 64% 0 mm
02:44 6.7 °C 0.3 °C 995.5 hPa WSW 9.7 km/h 20.9 km/h 64% 0 mm
02:49 6.6 °C 0.5 °C 995.5 hPa WSW 12.9 km/h 20.9 km/h 65% 0 mm
02:55 6.7 °C 0.6 °C 995.5 hPa SW 11.3 km/h 20.9 km/h 65% 0 mm
03:04 6.7 °C 0.6 °C 995.5 hPa WSW 9.7 km/h 27.4 km/h 65% 0 mm
03:09 6.7 °C 0.8 °C 995.5 hPa WSW 9.7 km/h 24.1 km/h 66% 0 mm
03:14 6.7 °C 0.8 °C 995.1 hPa WSW 9.7 km/h 19.3 km/h 66% 0 mm
03:19 6.7 °C 0.8 °C 995.1 hPa WSW 11.3 km/h 19.3 km/h 66% 0 mm
03:24 6.7 °C 1 °C 995.1 hPa SW 12.9 km/h 22.5 km/h 67% 0 mm
03:29 6.7 °C 1 °C 995.1 hPa WSW 9.7 km/h 22.5 km/h 67% 0 mm
03:34 6.7 °C 1.2 °C 995.1 hPa WSW 8 km/h 22.5 km/h 68% 0 mm
03:40 6.7 °C 1.2 °C 995.1 hPa WSW 11.3 km/h 22.5 km/h 68% 0 mm
03:49 6.6 °C 1.3 °C 995.1 hPa SW 9.7 km/h 20.9 km/h 69% 0 mm
03:54 6.6 °C 1.3 °C 995.1 hPa WSW 8 km/h 20.9 km/h 69% 0 mm
04:00 6.6 °C 1.3 °C 995.1 hPa WSW 9.7 km/h 17.7 km/h 69% 0 mm
04:09 6.6 °C 1.5 °C 995.1 hPa WSW 4.8 km/h 19.3 km/h 70% 0 mm
04:14 6.5 °C 1.4 °C 995.1 hPa WSW 8 km/h 12.9 km/h 70% 0 mm
04:19 6.5 °C 1.6 °C 994.8 hPa SW 8 km/h 17.7 km/h 71% 0 mm
04:24 6.4 °C 1.6 °C 995.1 hPa WSW 9.7 km/h 20.9 km/h 71% 0 mm
04:29 6.4 °C 1.6 °C 995.1 hPa WSW 9.7 km/h 20.9 km/h 71% 0 mm
04:34 6.4 °C 1.6 °C 994.8 hPa WSW 11.3 km/h 20.9 km/h 71% 0 mm
04:40 6.4 °C 1.8 °C 994.8 hPa WSW 12.9 km/h 20.9 km/h 72% 0 mm
04:49 6.3 °C 1.8 °C 994.8 hPa WSW 9.7 km/h 25.7 km/h 73% 0 mm
04:54 6.3 °C 1.8 °C 994.8 hPa West 11.3 km/h 24.1 km/h 73% 0 mm
05:04 6.3 °C 1.8 °C 994.8 hPa West 12.9 km/h 27.4 km/h 73% 0 mm
05:09 6.2 °C 1.9 °C 994.8 hPa WSW 12.9 km/h 27.4 km/h 74% 0 mm
05:19 5.9 °C 2.1 °C 994.8 hPa West 17.7 km/h 27.4 km/h 76% 0 mm
05:24 5.8 °C 1.9 °C 994.5 hPa WSW 16.1 km/h 27.4 km/h 76% 0.3 mm
05:29 5.7 °C 2 °C 994.8 hPa West 11.3 km/h 22.5 km/h 77% 0.3 mm
05:35 5.7 °C 1.9 °C 994.8 hPa WSW 12.9 km/h 20.9 km/h 77% 0.3 mm
05:45 5.6 °C 2 °C 994.8 hPa West 11.3 km/h 25.7 km/h 78% 0.3 mm
05:54 5.4 °C 2.1 °C 994.8 hPa WSW 9.7 km/h 19.3 km/h 79% 0.3 mm
06:04 5.2 °C 2.1 °C 994.5 hPa West 9.7 km/h 17.7 km/h 80% 0.3 mm
06:10 5.2 °C 2.1 °C 994.5 hPa WSW 9.7 km/h 25.7 km/h 80% 0.5 mm
06:19 5.1 °C 2.1 °C 994.5 hPa WSW 11.3 km/h 16.1 km/h 81% 0.5 mm
06:24 5.1 °C 2.1 °C 994.8 hPa WSW 9.7 km/h 17.7 km/h 81% 0.8 mm
06:29 5.1 °C 2.1 °C 994.8 hPa WSW 9.7 km/h 19.3 km/h 81% 0.8 mm
06:34 5 °C 2 °C 994.8 hPa WSW 8 km/h 19.3 km/h 81% 0.8 mm
06:45 4.9 °C 2.1 °C 994.5 hPa WSW 6.4 km/h 17.7 km/h 82% 0.8 mm
06:50 4.9 °C 2.1 °C 994.8 hPa WSW 4.8 km/h 17.7 km/h 82% 1 mm
06:59 4.8 °C 2.2 °C 994.8 hPa WSW 9.7 km/h 19.3 km/h 83% 1.3 mm
07:04 4.8 °C 2.2 °C 994.8 hPa WSW 9.7 km/h 19.3 km/h 83% 1.3 mm
07:14 4.8 °C 2.2 °C 994.8 hPa WSW 9.7 km/h 20.9 km/h 83% 1.3 mm
07:19 4.8 °C 2.2 °C 994.8 hPa WSW 8 km/h 17.7 km/h 83% 1.3 mm
07:24 4.8 °C 2.1 °C 994.8 hPa WSW 8 km/h 17.7 km/h 83% 1.5 mm
07:29 4.8 °C 2.1 °C 994.8 hPa SW 11.3 km/h 19.3 km/h 83% 1.5 mm
07:34 4.8 °C 2.1 °C 994.8 hPa WSW 9.7 km/h 25.7 km/h 83% 1.8 mm
07:39 4.7 °C 2.1 °C 994.8 hPa West 11.3 km/h 25.7 km/h 83% 1.8 mm
07:44 4.7 °C 2.1 °C 994.8 hPa WSW 11.3 km/h 24.1 km/h 83% 1.8 mm
07:49 4.6 °C 2 °C 994.8 hPa WSW 12.9 km/h 24.1 km/h 83% 1.8 mm
07:54 4.6 °C 1.9 °C 994.8 hPa WSW 9.7 km/h 24.1 km/h 83% 1.8 mm
07:59 4.4 °C 1.8 °C 994.8 hPa West 11.3 km/h 19.3 km/h 83% 2 mm
08:04 4.4 °C 1.9 °C 994.8 hPa West 14.5 km/h 22.5 km/h 84% 2.3 mm
08:09 4.3 °C 1.9 °C 994.8 hPa WSW 6.4 km/h 22.5 km/h 84% 2.3 mm
08:14 4.3 °C 1.8 °C 994.8 hPa West 11.3 km/h 19.3 km/h 84% 2.3 mm
08:19 4.3 °C 2 °C 994.8 hPa SW 9.7 km/h 20.9 km/h 85% 2.3 mm
08:24 4.3 °C 2 °C 994.8 hPa WSW 8 km/h 20.9 km/h 85% 2.3 mm
08:29 4.2 °C 1.9 °C 994.8 hPa WSW 6.4 km/h 19.3 km/h 85% 2.3 mm
08:34 4.2 °C 1.9 °C 994.8 hPa WSW 9.7 km/h 20.9 km/h 85% 2.3 mm
08:44 4.1 °C 1.8 °C 994.8 hPa WSW 11.3 km/h 22.5 km/h 85% 2.5 mm
08:49 4.1 °C 1.7 °C 994.8 hPa WSW 9.7 km/h 20.9 km/h 84% 2.5 mm
08:54 4.1 °C 1.7 °C 994.8 hPa WSW 8 km/h 19.3 km/h 84% 2.5 mm
09:00 4.1 °C 1.6 °C 994.8 hPa WSW 9.7 km/h 17.7 km/h 84% 2.5 mm
09:09 4.1 °C 1.6 °C 994.8 hPa West 9.7 km/h 22.5 km/h 84% 2.8 mm
09:14 4.1 °C 1.6 °C 994.8 hPa WSW 9.7 km/h 22.5 km/h 84% 2.8 mm
09:19 4 °C 1.6 °C 994.8 hPa WSW 9.7 km/h 22.5 km/h 84% 2.8 mm
09:24 4 °C 1.7 °C 994.8 hPa WSW 8 km/h 22.5 km/h 85% 2.8 mm
09:29 3.9 °C 1.6 °C 994.8 hPa WSW 9.7 km/h 17.7 km/h 85% 2.8 mm
09:34 3.9 °C 1.6 °C 994.8 hPa WSW 8 km/h 19.3 km/h 85% 2.8 mm
09:44 3.9 °C 1.7 °C 994.8 hPa WSW 9.7 km/h 20.9 km/h 85% 3 mm
09:49 3.9 °C 1.7 °C 994.8 hPa SW 9.7 km/h 17.7 km/h 85% 3 mm
09:54 3.9 °C 1.7 °C 994.8 hPa WSW 8 km/h 19.3 km/h 85% 3 mm
09:59 4 °C 1.7 °C 994.8 hPa WSW 9.7 km/h 19.3 km/h 85% 3 mm
10:04 3.9 °C 1.7 °C 994.8 hPa WSW 9.7 km/h 24.1 km/h 85% 3.3 mm
10:09 4.1 °C 1.8 °C 994.8 hPa WSW 11.3 km/h 24.1 km/h 85% 3.3 mm
10:14 4.1 °C 1.6 °C 994.5 hPa WSW 14.5 km/h 25.7 km/h 84% 3.3 mm
10:19 4.1 °C 1.7 °C 994.5 hPa WSW 9.7 km/h 25.7 km/h 84% 3.3 mm
10:24 4.2 °C 1.7 °C 994.5 hPa WSW 9.7 km/h 24.1 km/h 84% 3.3 mm
10:29 4.1 °C 1.6 °C 994.5 hPa WSW 11.3 km/h 24.1 km/h 84% 3.3 mm
10:34 4.1 °C 1.7 °C 994.5 hPa WSW 11.3 km/h 27.4 km/h 84% 3.3 mm
10:44 4.1 °C 1.6 °C 994.8 hPa WSW 8 km/h 20.9 km/h 84% 3.3 mm
10:50 4.1 °C 1.4 °C 994.8 hPa WSW 12.9 km/h 22.5 km/h 83% 3.6 mm
11:00 4.2 °C 1.8 °C 994.8 hPa West 11.3 km/h 22.5 km/h 84% 3.6 mm
11:09 4.3 °C 1.8 °C 994.8 hPa WSW 14.5 km/h 22.5 km/h 84% 3.8 mm
11:15 4.2 °C 1.7 °C 994.8 hPa West 8 km/h 20.9 km/h 84% 3.8 mm
11:20 4.1 °C 1.6 °C 994.8 hPa WSW 8 km/h 22.5 km/h 84% 3.8 mm
11:29 3.9 °C 1.5 °C 994.8 hPa WSW 11.3 km/h 22.5 km/h 84% 3.8 mm
11:34 3.9 °C 1.5 °C 994.8 hPa SW 9.7 km/h 22.5 km/h 84% 4.1 mm
11:40 4 °C 1.6 °C 994.8 hPa SW 11.3 km/h 24.1 km/h 84% 4.1 mm
11:54 4.1 °C 1.7 °C 994.8 hPa West 11.3 km/h 24.1 km/h 84% 4.1 mm
12:04 4.1 °C 1.7 °C 994.8 hPa West 11.3 km/h 24.1 km/h 84% 4.3 mm
12:09 4.2 °C 1.6 °C 994.8 hPa WSW 11.3 km/h 20.9 km/h 83% 4.3 mm
12:14 4.2 °C 1.6 °C 994.8 hPa West 9.7 km/h 20.9 km/h 83% 4.3 mm
12:19 4.3 °C 1.5 °C 994.8 hPa WSW 16.1 km/h 29 km/h 82% 4.3 mm
12:24 4.4 °C 1.4 °C 994.8 hPa WSW 11.3 km/h 32.2 km/h 81% 4.3 mm
12:34 4.5 °C 1.5 °C 994.8 hPa WSW 11.3 km/h 24.1 km/h 81% 4.3 mm
12:39 4.6 °C 1.6 °C 994.8 hPa WSW 8 km/h 24.1 km/h 81% 4.3 mm
12:44 4.7 °C 1.7 °C 994.8 hPa WSW 11.3 km/h 20.9 km/h 81% 4.3 mm
12:54 4.9 °C 1.8 °C 994.8 hPa WSW 11.3 km/h 20.9 km/h 80% 4.3 mm
12:59 5 °C 1.8 °C 994.8 hPa WSW 12.9 km/h 25.7 km/h 80% 4.3 mm
13:04 5.1 °C 1.9 °C 994.8 hPa WSW 9.7 km/h 25.7 km/h 80% 4.3 mm
13:09 5.2 °C 2 °C 994.8 hPa WSW 8 km/h 20.9 km/h 80% 4.3 mm
13:14 5.1 °C 1.9 °C 994.8 hPa WSW 9.7 km/h 20.9 km/h 80% 4.3 mm
13:19 5.1 °C 1.9 °C 994.8 hPa West 9.7 km/h 20.9 km/h 80% 4.3 mm
13:24 5.1 °C 1.8 °C 994.8 hPa West 11.3 km/h 22.5 km/h 79% 4.3 mm
13:34 5.1 °C 1.8 °C 994.8 hPa WSW 11.3 km/h 20.9 km/h 79% 4.3 mm
13:40 5.1 °C 1.9 °C 995.1 hPa WSW 9.7 km/h 20.9 km/h 80% 4.6 mm
13:50 5.1 °C 1.9 °C 995.1 hPa WSW 11.3 km/h 25.7 km/h 80% 4.6 mm
13:59 5.2 °C 1.8 °C 995.1 hPa WSW 9.7 km/h 27.4 km/h 79% 4.8 mm
14:04 5.3 °C 1.8 °C 995.1 hPa WSW 9.7 km/h 25.7 km/h 78% 4.8 mm
14:09 5.5 °C 1.9 °C 995.1 hPa West 17.7 km/h 30.6 km/h 78% 4.8 mm
14:14 5.7 °C 1.8 °C 995.1 hPa WSW 14.5 km/h 30.6 km/h 76% 4.8 mm
14:24 5.8 °C 1.7 °C 995.1 hPa WSW 16.1 km/h 33.8 km/h 75% 4.8 mm
14:29 5.7 °C 1.6 °C 995.1 hPa WSW 12.9 km/h 33.8 km/h 75% 4.8 mm
14:34 5.8 °C 1.7 °C 995.1 hPa WSW 8 km/h 24.1 km/h 75% 4.8 mm
14:40 5.8 °C 1.6 °C 995.1 hPa WSW 16.1 km/h 29 km/h 74% 4.8 mm
14:45 6.1 °C 1.9 °C 995.1 hPa WSW 9.7 km/h 29 km/h 75% 4.8 mm
14:54 6.4 °C 2.2 °C 995.1 hPa West 12.9 km/h 32.2 km/h 74% 4.8 mm
14:59 6.4 °C 1.9 °C 995.1 hPa WSW 17.7 km/h 40.2 km/h 73% 4.8 mm
15:10 6.4 °C 1.9 °C 995.1 hPa West 17.7 km/h 29 km/h 73% 4.8 mm
15:15 6.2 °C 1.6 °C 995.1 hPa WSW 17.7 km/h 35.4 km/h 72% 4.8 mm
15:24 6.1 °C 1.6 °C 995.5 hPa WSW 14.5 km/h 29 km/h 73% 4.8 mm
15:29 6.1 °C 1.6 °C 995.5 hPa WSW 19.3 km/h 30.6 km/h 73% 4.8 mm
15:40 5.9 °C 1.5 °C 995.8 hPa WSW 14.5 km/h 30.6 km/h 73% 4.8 mm
15:50 5.8 °C 1.4 °C 995.8 hPa WSW 11.3 km/h 30.6 km/h 73% 4.8 mm
16:00 5.7 °C 1.1 °C 995.8 hPa WSW 19.3 km/h 40.2 km/h 72% 4.8 mm
16:09 5.7 °C 1.3 °C 995.8 hPa WSW 12.9 km/h 33.8 km/h 73% 4.8 mm
16:14 5.7 °C 1 °C 995.8 hPa WSW 12.9 km/h 30.6 km/h 72% 4.8 mm
16:19 5.7 °C 1.1 °C 995.8 hPa WSW 16.1 km/h 30.6 km/h 72% 4.8 mm
16:24 5.7 °C 1.1 °C 995.8 hPa West 14.5 km/h 38.6 km/h 72% 4.8 mm
16:29 5.7 °C 0.9 °C 995.8 hPa WSW 16.1 km/h 38.6 km/h 71% 4.8 mm
16:39 5.8 °C 1.3 °C 995.8 hPa SW 9.7 km/h 29 km/h 73% 4.8 mm
16:49 5.8 °C 1.1 °C 996.2 hPa WSW 16.1 km/h 30.6 km/h 72% 4.8 mm
16:59 5.8 °C 1.2 °C 996.2 hPa WSW 11.3 km/h 29 km/h 72% 4.8 mm
17:05 5.8 °C 1.1 °C 996.2 hPa WSW 11.3 km/h 25.7 km/h 72% 4.8 mm
17:14 5.8 °C 1.1 °C 996.2 hPa WSW 12.9 km/h 25.7 km/h 72% 4.8 mm
17:24 5.8 °C 1 °C 996.5 hPa SW 16.1 km/h 32.2 km/h 71% 4.8 mm
17:34 5.7 °C 1.1 °C 996.5 hPa WSW 11.3 km/h 24.1 km/h 72% 4.8 mm
17:39 5.7 °C 1.1 °C 996.5 hPa WSW 14.5 km/h 35.4 km/h 72% 4.8 mm
17:44 5.8 °C 1.1 °C 996.5 hPa WSW 9.7 km/h 35.4 km/h 72% 4.8 mm
17:49 5.8 °C 1.1 °C 996.5 hPa West 20.9 km/h 38.6 km/h 72% 4.8 mm
17:54 5.8 °C 1.1 °C 996.8 hPa West 16.1 km/h 38.6 km/h 72% 4.8 mm
17:59 5.8 °C 1.1 °C 996.8 hPa West 16.1 km/h 29 km/h 72% 4.8 mm
18:04 5.7 °C 1.2 °C 996.8 hPa WSW 12.9 km/h 30.6 km/h 73% 4.8 mm
18:09 5.4 °C 1.2 °C 996.8 hPa West 14.5 km/h 30.6 km/h 74% 4.8 mm
18:14 5.3 °C 1.3 °C 996.8 hPa WSW 9.7 km/h 25.7 km/h 75% 4.8 mm
18:19 5.2 °C 1.3 °C 997.2 hPa West 9.7 km/h 29 km/h 76% 4.8 mm
18:24 5.1 °C 1.3 °C 997.2 hPa WSW 12.9 km/h 29 km/h 77% 4.8 mm
18:30 4.9 °C 1.4 °C 997.2 hPa WSW 16.1 km/h 24.1 km/h 78% 4.8 mm
18:40 4.8 °C 1.3 °C 997.2 hPa WSW 12.9 km/h 29 km/h 78% 4.8 mm
18:54 4.7 °C 1.5 °C 997.2 hPa WSW 9.7 km/h 30.6 km/h 80% 4.8 mm
18:59 4.4 °C 1.4 °C 997.5 hPa SW 16.1 km/h 30.6 km/h 81% 4.8 mm
19:04 4.2 °C 1.4 °C 997.5 hPa WSW 11.3 km/h 29 km/h 82% 5.1 mm
19:09 4.1 °C 1.5 °C 997.5 hPa WSW 8 km/h 25.7 km/h 83% 5.3 mm
19:14 4.1 °C 1.6 °C 997.5 hPa WSW 6.4 km/h 24.1 km/h 84% 5.3 mm
19:24 3.9 °C 1.5 °C 997.5 hPa WSW 11.3 km/h 20.9 km/h 84% 5.3 mm
19:29 3.9 °C 1.5 °C 997.9 hPa WSW 11.3 km/h 20.9 km/h 84% 5.3 mm
19:40 3.9 °C 1.6 °C 997.9 hPa WSW 12.9 km/h 29 km/h 85% 5.3 mm
19:49 3.9 °C 1.5 °C 997.9 hPa WSW 11.3 km/h 20.9 km/h 84% 5.3 mm
19:54 3.9 °C 1.4 °C 997.9 hPa WSW 12.9 km/h 25.7 km/h 84% 5.3 mm
19:59 3.8 °C 1.4 °C 998.2 hPa West 11.3 km/h 25.7 km/h 84% 5.8 mm
20:04 3.7 °C 1.3 °C 998.2 hPa West 12.9 km/h 22.5 km/h 84% 6.1 mm
20:09 3.6 °C 1.1 °C 998.2 hPa West 8 km/h 20.9 km/h 84% 6.4 mm
20:14 3.4 °C 1.2 °C 998.2 hPa WSW 9.7 km/h 20.9 km/h 85% 6.9 mm
20:19 3.4 °C 1.3 °C 998.2 hPa WSW 8 km/h 19.3 km/h 86% 6.9 mm
20:25 3.4 °C 1.3 °C 998.2 hPa WSW 1.6 km/h 14.5 km/h 86% 6.9 mm
20:34 3.5 °C 1.6 °C 998.5 hPa WSW 11.3 km/h 19.3 km/h 87% 7.1 mm
20:40 3.6 °C 1.4 °C 998.5 hPa WSW 12.9 km/h 25.7 km/h 86% 7.4 mm
20:49 3.4 °C 1.3 °C 998.5 hPa West 9.7 km/h 22.5 km/h 86% 7.9 mm
20:55 3.4 °C 1.4 °C 998.5 hPa WSW 8 km/h 16.1 km/h 87% 8.1 mm
21:04 3.3 °C 1.4 °C 998.5 hPa WSW 6.4 km/h 16.1 km/h 87% 8.4 mm
21:09 3.4 °C 1.4 °C 998.5 hPa West 9.7 km/h 19.3 km/h 87% 8.6 mm
21:14 3.4 °C 1.4 °C 998.5 hPa West 11.3 km/h 19.3 km/h 87% 8.6 mm
21:19 3.4 °C 1.5 °C 998.5 hPa West 3.2 km/h 16.1 km/h 87% 8.9 mm
21:24 3.4 °C 1.4 °C 998.5 hPa WSW 4.8 km/h 17.7 km/h 87% 8.9 mm
21:30 3.4 °C 1.5 °C 998.5 hPa West 8 km/h 17.7 km/h 87% 8.9 mm
21:40 3.5 °C 1.6 °C 998.5 hPa West 1.6 km/h 17.7 km/h 87% 9.1 mm
21:49 3.5 °C 1.6 °C 998.5 hPa WSW 4.8 km/h 14.5 km/h 87% 9.4 mm
21:54 3.5 °C 1.6 °C 998.9 hPa WSW 6.4 km/h 14.5 km/h 87% 9.4 mm
21:59 3.5 °C 1.6 °C 998.9 hPa West 8 km/h 16.1 km/h 87% 9.4 mm
22:04 3.5 °C 1.6 °C 998.9 hPa West 9.7 km/h 17.7 km/h 87% 9.4 mm
22:09 3.5 °C 1.6 °C 998.9 hPa West 8 km/h 19.3 km/h 87% 9.7 mm
22:14 3.4 °C 1.5 °C 998.9 hPa WSW 8 km/h 19.3 km/h 87% 9.7 mm
22:24 3.4 °C 1.4 °C 998.9 hPa West 11.3 km/h 19.3 km/h 87% 9.7 mm
22:30 3.3 °C 1.4 °C 998.9 hPa WSW 4.8 km/h 17.7 km/h 87% 9.7 mm
22:44 3.2 °C 1.3 °C 998.9 hPa West 6.4 km/h 11.3 km/h 87% 9.9 mm
22:50 3.1 °C 1.3 °C 998.9 hPa SW 6.4 km/h 14.5 km/h 88% 9.9 mm
23:00 3.1 °C 1.3 °C 998.9 hPa WSW 8 km/h 14.5 km/h 88% 10.2 mm
23:09 3 °C 1.2 °C 998.9 hPa West 6.4 km/h 17.7 km/h 88% 10.4 mm
23:19 3 °C 1.2 °C 998.9 hPa WSW 11.3 km/h 20.9 km/h 88% 10.4 mm
23:24 2.9 °C 1.2 °C 998.5 hPa WSW 9.7 km/h 17.7 km/h 88% 10.4 mm
23:29 3 °C 1.2 °C 998.5 hPa WSW 11.3 km/h 22.5 km/h 88% 10.4 mm
23:34 3 °C 1.2 °C 998.5 hPa SW 8 km/h 22.5 km/h 88% 10.4 mm
23:39 3 °C 1.2 °C 998.5 hPa WSW 6.4 km/h 19.3 km/h 88% 10.4 mm
23:50 3 °C 1.2 °C 998.5 hPa WSW 9.7 km/h 17.7 km/h 88% 10.4 mm
23:59 3 °C 1.2 °C 998.5 hPa WSW 8 km/h 20.9 km/h 88% 10.4 mm
Westford Weather
Compliments of Weather Underground

 
 
Current Radar Loop:

Copyright © WestfordWeather.net 2007-2014. All rights reserved.